[TLELIST] Archives

 

[TLELIST] Current TLEs

October 5th 2023 PDT

HST 1 20580U 90037B 23277.65946811 .00008188 00000-0 42570-3 0 9991 2 20580 28.4691 259.0856 0002646 126.8440 38.0454 15.14273024638061 ISS (ZARYA) 1 25544U 98067A 23278.34341472 .00019200 00000-0 34581-3 0 9996 2 25544 51.6405 142.9124 0005554 72.3850 91.6166 15.49804239418872 CXO 1 25867U 99040B 23279.01445405 .00000960 00000-0 00000-0 0 9991 2 25867 37.3871 182.6615 9048725 274.0211 0.2816 0.37811202 13599 ...Continue Reading

[TLELIST] Current TLEs

October 4th 2023 PDT

HST 1 20580U 90037B 23276.67083958 .00007069 00000-0 36637-3 0 9990 2 20580 28.4692 265.6738 0002666 116.7993 47.9981 15.14256538637915 ISS (ZARYA) 1 25544U 98067A 23277.37755377 .00020562 00000-0 37016-3 0 9990 2 25544 51.6409 147.6978 0005451 70.2852 101.4099 15.49771410418723 CXO 1 25867U 99040B 23279.01445405 .00000960 00000-0 00000-0 0 9991 2 25867 37.3871 182.6615 9048725 274.0211 0.2816 0.37811202 13599 ...Continue Reading

[TLELIST] Current TLEs

October 4th 2023 PDT

HST 1 20580U 90037B 23276.67083958 .00007069 00000-0 36637-3 0 9990 2 20580 28.4692 265.6738 0002666 116.7993 47.9981 15.14256538637915 ISS (ZARYA) 1 25544U 98067A 23277.37755377 .00020562 00000-0 37016-3 0 9990 2 25544 51.6409 147.6978 0005451 70.2852 101.4099 15.49771410418723 CXO 1 25867U 99040B 23279.01445405 .00000960 00000-0 00000-0 0 9991 2 25867 37.3871 182.6615 9048725 274.0211 0.2816 0.37811202 13599 ...Continue Reading

[TLELIST] Current TLEs

October 4th 2023 PDT

HST 1 20580U 90037B 23276.67083958 .00007069 00000-0 36637-3 0 9990 2 20580 28.4692 265.6738 0002666 116.7993 47.9981 15.14256538637915 ISS (ZARYA) 1 25544U 98067A 23277.37755377 .00020562 00000-0 37016-3 0 9990 2 25544 51.6409 147.6978 0005451 70.2852 101.4099 15.49771410418723 CXO 1 25867U 99040B 23279.01445405 .00000960 00000-0 00000-0 0 9991 2 25867 37.3871 182.6615 9048725 274.0211 0.2816 0.37811202 13599 ...Continue Reading

[TLELIST] Current TLEs

October 3rd 2023 PDT

HST 1 20580U 90037B 23276.18985247 .00007069 00000-0 36640-3 0 9992 2 20580 28.4692 268.8790 0002687 112.1903 305.3771 15.14249824638102 ISS (ZARYA) 1 25544U 98067A 23276.26941150 .00021516 00000-0 38750-3 0 9999 2 25544 51.6417 153.1843 0005276 67.1452 38.0482 15.49728922418553 CXO 1 25867U 99040B 23279.01407764 .00000960 00000-0 00000+0 0 9996 2 25867 37.3871 182.6615 9048729 274.0211 0.2305 0.37811006 24758 ...Continue Reading

[TLELIST] Current TLEs

October 3rd 2023 PDT

HST 1 20580U 90037B 23276.18985247 .00007069 00000-0 36640-3 0 9992 2 20580 28.4692 268.8790 0002687 112.1903 305.3771 15.14249824638102 ISS (ZARYA) 1 25544U 98067A 23276.26941150 .00021516 00000-0 38750-3 0 9999 2 25544 51.6417 153.1843 0005276 67.1452 38.0482 15.49728922418553 CXO 1 25867U 99040B 23279.01407764 .00000960 00000-0 00000+0 0 9996 2 25867 37.3871 182.6615 9048729 274.0211 0.2305 0.37811006 24758 ...Continue Reading

[TLELIST] Current TLEs

October 2nd 2023 PDT

HST 1 20580U 90037B 23274.76061147 .00006900 00000-0 35767-3 0 9990 2 20580 28.4691 278.4035 0002682 97.8189 73.0697 15.14228913637628 ISS (ZARYA) 1 25544U 98067A 23275.40916667 .00000938 00000-0 24690-4 0 9993 2 25544 51.6389 157.4439 0005156 64.5744 278.1794 15.49680371418414 CXO 1 25867U 99040B 23276.36998489 .00000879 00000-0 00000-0 0 9990 2 25867 37.3734 183.0155 9048966 273.7242 0.3243 0.37809910 13596 ...Continue Reading

[TLELIST] Current TLEs

October 2nd 2023 PDT

HST 1 20580U 90037B 23274.76061147 .00006900 00000-0 35767-3 0 9990 2 20580 28.4691 278.4035 0002682 97.8189 73.0697 15.14228913637628 ISS (ZARYA) 1 25544U 98067A 23275.40916667 .00000938 00000-0 24690-4 0 9993 2 25544 51.6389 157.4439 0005156 64.5744 278.1794 15.49680371418414 CXO 1 25867U 99040B 23276.36998489 .00000879 00000-0 00000-0 0 9990 2 25867 37.3734 183.0155 9048966 273.7242 0.3243 0.37809910 13596 ...Continue Reading

[TLELIST] Current TLEs

October 2nd 2023 PDT

HST 1 20580U 90037B 23274.76061147 .00006900 00000-0 35767-3 0 9990 2 20580 28.4691 278.4035 0002682 97.8189 73.0697 15.14228913637628 ISS (ZARYA) 1 25544U 98067A 23275.40916667 .00000938 00000-0 24690-4 0 9993 2 25544 51.6389 157.4439 0005156 64.5744 278.1794 15.49680371418414 CXO 1 25867U 99040B 23276.36998489 .00000879 00000-0 00000-0 0 9990 2 25867 37.3734 183.0155 9048966 273.7242 0.3243 0.37809910 13596 ...Continue Reading

[TLELIST] Current TLEs

October 1st 2023 PDT

HST 1 20580U 90037B 23273.50113635 .00006155 00000-0 31812-3 0 9990 2 20580 28.4692 286.7965 0002641 84.9220 46.6564 15.14210466637691 ISS (ZARYA) 1 25544U 98067A 23274.21251013 .00057819 00000-0 10254-2 0 9997 2 25544 51.6408 163.3694 0005202 65.8884 76.5711 15.49662113418239 CXO 1 25867U 99040B 23276.36920278 .00000879 00000-0 00000+0 0 9990 2 25867 37.3758 183.0353 9048941 273.7050 0.2188 0.37812691 24748 ...Continue Reading
  • This mailing list is a public mailing list - anyone may join or leave, at any time.
  • This mailing list is announce-only.

International Space Station (ISS) / Hubble Space Telescope (HST) / Chandra X-Ray Observatory Orbital Data via EMAIL

Privacy Policy:

Private list